Theta_e
327 326 324 322 320 320 315 309 305 304 303 301 301 300 299 292 289 288 288 288 288 289 288 288 289 288 288 287 286 286 285 284 283 283 282 281 281 280 280 279 279 278 277
325 325 320 322 317 313 306 303 302 301 300 300 300 297 289 288 288 288 288 288 288 288 288 288 288 288 287 286 286 285 284 283 281 280 280 280 280 279 279 278 277 276 275
324 321 317 315 311 305 302 301 300 300 299 298 293 289 288 288 288 288 288 288 288 288 288 287 286 286 286 286 285 284 283 282 281 280 281 280 279 278 278 276 275 274 273
311 308 309 304 302 302 300 300 300 298 296 289 288 288 288 288 288 288 287 288 288 287 286 286 286 286 286 285 284 283 283 282 282 282 280 279 278 276 275 274 274 272 272
303 302 300 300 300 300 299 299 298 294 289 288 288 288 288 287 287 287 287 287 286 286 286 286 286 285 285 284 284 282 282 282 281 279 278 277 275 274 273 273 272 271 271
302 301 299 299 300 299 298 295 291 288 288 288 288 288 287 287 287 287 287 286 286 286 286 286 285 284 283 282 282 282 281 280 279 276 275 275 274 273 272 271 270 270 270
299 299 299 299 298 299 293 289 291 289 287 288 287 287 288 288 286 286 286 287 286 286 285 284 283 282 282 283 282 281 279 278 276 276 275 274 272 271 270 270 270 269 269
299 299 298 298 296 292 290 288 287 288 288 288 288 287 287 287 287 287 287 286 285 284 284 283 283 283 282 281 280 279 277 276 276 275 273 272 271 271 270 270 269 268 268
298 298 298 296 291 288 288 288 288 288 288 288 287 287 287 287 287 287 286 285 284 283 283 284 283 283 281 280 278 277 277 276 274 273 272 272 271 270 269 268 268 268 268
298 296 289 288 289 289 289 288 288 288 289 288 287 287 287 287 286 285 284 284 284 284 283 283 282 281 279 278 276 275 275 274 272 272 271 270 270 269 269 268 267 267 266
290 289 288 289 289 289 289 288 290 290 288 288 287 286 286 285 285 284 284 285 285 284 283 282 280 279 277 276 274 274 273 272 272 271 270 269 269 269 268 267 267 266 266
289 289 288 288 288 288 290 292 290 289 288 287 286 286 285 284 284 285 286 285 284 282 280 279 278 276 275 274 273 273 271 271 270 270 269 269 268 268 267 267 267 266 265
288 287 287 288 289 290 294 294 291 288 286 285 285 285 284 285 286 285 284 283 280 279 278 277 275 274 274 273 272 271 271 270 269 269 268 268 267 267 267 267 267 266 266
288 288 288 292 293 293 293 292 289 286 285 285 285 285 286 286 284 283 281 279 278 277 276 275 274 274 273 272 271 271 270 269 268 268 267 267 267 267 267 266 266 266 266
288 288 292 293 292 291 291 287 285 286 285 285 285 287 285 284 282 280 278 278 277 276 276 275 274 273 272 271 271 270 269 268 268 267 267 267 267 266 266 266 266 266 265
288 289 291 290 291 292 291 287 286 285 285 286 286 283 283 281 278 277 277 276 276 276 275 274 273 272 271 270 270 269 269 268 268 267 267 267 267 266 266 266 265 265 265
291 289 290 291 292 290 286 286 287 286 286 284 283 282 279 278 278 277 277 276 276 275 274 273 273 272 271 271 270 269 269 268 267 267 266 266 266 265 265 265 265 265 264
292 292 291 291 288 285 285 286 286 286 284 283 281 279 278 278 277 277 277 275 274 274 274 273 272 272 271 271 270 269 269 268 268 267 267 266 266 265 265 265 265 264 264
292 291 289 287 285 285 286 285 285 283 283 280 278 278 277 277 277 276 275 275 274 273 273 273 272 271 271 270 269 269 268 268 268 267 267 266 266 265 265 265 265 264 264
289 288 286 285 285 286 286 285 284 283 279 278 278 277 277 276 276 275 275 274 274 273 272 272 271 271 270 269 269 268 268 268 267 267 267 266 266 265 266 265 265 264 264
287 285 285 285 285 285 284 284 282 279 278 278 277 277 277 276 276 275 275 274 273 273 272 271 271 270 270 270 269 269 268 268 267 267 266 266 266 265 265 265 264 264 264
286 286 285 285 285 285 284 280 278 278 278 277 277 276 276 276 275 275 274 273 273 272 271 271 271 271 270 270 269 268 268 268 268 267 267 266 266 265 265 264 264 264 264
285 286 286 286 284 282 279 278 278 278 277 277 276 276 276 276 275 274 273 273 272 272 272 271 271 271 270 269 269 268 268 268 267 267 266 266 266 265 264 264 263 263 263
286 285 285 284 281 279 278 278 278 277 277 276 276 276 276 275 274 274 273 273 273 272 272 272 271 271 270 269 269 268 268 268 267 267 266 266 266 266 265 264 264 263 263
285 284 283 280 279 278 278 277 277 277 276 276 276 276 276 275 274 274 274 273 273 272 272 272 271 270 270 270 269 269 268 268 268 267 267 267 266 266 265 264 264 264 264
284 281 279 279 278 278 277 277 277 277 276 276 276 276 275 275 274 274 273 273 273 272 272 272 271 270 270 269 269 269 269 269 269 268 266 266 266 266 266 265 265 264 264
Wind_Speed
56 53 50 45 41 38 38 36 34 34 32 30 29 24 23 19 19 17 15 13 9 8 7 5 4 4 4 6 8 9 10 12 13 16 18 20 20 23 26 30 32 32 33
51 48 48 44 40 38 35 37 35 36 35 24 28 27 22 19 17 15 12 11 8 7 5 3 2 4 6 8 10 12 13 15 16 19 21 22 23 26 30 31 31 32 33
49 50 47 43 40 39 40 40 38 32 28 31 26 22 20 18 15 13 10 9 7 5 3 3 4 6 8 11 13 14 15 16 17 20 22 24 27 30 31 31 32 33 32
45 43 42 39 42 45 45 40 31 33 32 27 24 21 17 15 12 10 9 6 4 3 4 4 6 8 11 13 14 16 18 19 21 22 24 27 29 30 31 35 37 35 35
41 42 46 51 50 47 39 36 36 32 28 24 21 19 16 13 11 7 5 4 4 3 4 7 10 12 14 16 18 19 21 23 22 23 25 27 30 31 34 35 35 36 37
43 48 50 48 46 39 39 37 33 30 25 22 19 16 14 11 8 6 5 3 3 4 8 9 11 14 16 17 19 20 22 20 21 23 27 30 29 30 32 33 34 36 38
53 53 46 40 42 42 37 32 29 27 24 20 17 14 11 9 7 5 2 2 5 7 8 11 14 16 17 19 20 21 20 18 18 24 27 27 28 29 30 32 34 34 33
49 44 42 42 41 38 33 30 27 24 21 18 14 12 9 7 5 2 3 4 6 8 10 12 14 17 19 20 21 22 23 22 24 24 23 23 24 28 27 29 31 33 34
40 42 40 38 38 34 30 26 24 21 18 15 13 10 7 6 4 4 5 5 8 10 12 15 17 19 20 22 23 25 26 25 25 24 22 25 27 27 26 27 28 30 34
40 37 34 32 31 30 27 24 21 17 15 12 10 8 5 4 3 4 6 6 8 11 13 16 19 21 21 21 23 27 28 27 27 30 30 28 27 26 25 23 24 27 28
34 33 31 28 28 25 24 21 18 15 12 10 8 7 4 2 3 4 7 11 13 15 17 17 19 21 22 20 17 25 25 24 29 31 32 31 28 26 24 22 21 24 27
31 30 29 27 25 24 20 18 14 11 10 9 7 5 3 2 6 10 12 13 15 15 17 19 20 21 21 21 24 26 22 29 31 32 32 30 28 27 25 25 23 23 24
30 29 27 25 23 19 15 13 10 10 8 8 6 4 4 6 8 10 12 14 16 18 19 20 21 22 24 27 27 26 29 31 31 30 30 29 28 28 27 28 28 27 29
26 26 25 23 22 16 10 9 9 9 7 6 5 5 5 7 8 10 12 13 15 17 16 17 21 23 24 25 27 26 27 28 29 29 30 30 30 30 29 29 32 33 37
22 22 22 19 15 11 11 10 7 6 5 4 3 4 5 7 9 12 15 16 18 20 21 22 23 23 23 24 24 24 25 25 27 27 29 31 32 32 32 31 33 35 37
19 19 17 13 8 7 7 8 7 5 4 3 3 3 6 8 10 13 14 15 18 20 20 21 21 23 25 27 28 29 27 26 27 29 29 31 33 34 35 34 33 35 39
14 16 14 10 8 8 7 6 5 4 3 1 2 4 6 8 10 12 13 16 18 20 20 21 23 25 27 28 30 31 32 30 30 30 31 31 32 34 36 37 37 37 40
14 13 12 11 9 8 6 4 2 1 1 1 2 4 7 8 9 11 15 16 16 19 21 24 26 27 29 30 31 32 33 32 32 31 32 32 33 34 37 38 38 40 41
14 13 11 9 9 7 5 4 2 1 2 1 2 3 4 8 11 14 17 19 20 21 23 25 27 29 31 32 33 35 35 35 35 35 34 34 34 34 37 37 39 40 41
14 11 10 8 7 6 4 2 3 4 2 1 1 2 5 8 11 14 18 21 23 25 26 29 30 32 33 35 36 38 39 38 38 37 36 35 35 36 37 38 39 41 41
11 8 6 5 5 5 6 6 5 3 2 1 2 5 8 11 15 18 20 22 25 27 29 31 33 35 35 36 37 39 39 40 39 39 39 38 38 38 37 38 39 40 41
7 6 6 7 8 8 7 6 5 4 2 1 4 7 10 15 17 19 21 24 26 28 30 33 35 36 36 37 37 37 38 38 37 38 39 39 39 39 39 39 39 40 40
7 8 9 9 9 8 7 6 5 3 0 2 5 9 13 16 19 22 25 27 29 30 31 32 34 36 35 35 33 33 35 34 34 35 37 37 37 38 38 39 39 40 39
10 10 8 8 7 7 6 5 4 3 2 4 8 12 16 19 22 25 28 30 31 32 32 33 35 36 36 34 32 32 33 33 35 36 36 36 35 33 34 35 36 36 36
9 8 7 6 6 7 6 6 4 2 4 7 11 15 18 22 25 27 29 30 32 34 34 35 37 37 35 35 33 32 33 34 34 35 35 35 36 35 34 34 34 34 33
8 8 7 7 7 7 7 6 4 4 7 11 14 17 21 24 27 29 30 32 34 35 36 37 38 37 36 35 34 34 34 35 37 36 35 37 38 37 36 34 32 32 31
Wind_Direction
206 206 207 202 201 207 202 194 180 164 156 147 142 142 122 131 137 136 142 140 138 136 121 100 83 64 37 18 10 356 345 336 326 320 319 321 321 322 322 319 322 323 325
201 202 197 200 193 192 182 163 155 149 141 140 137 121 139 139 137 143 142 138 140 127 122 105 66 32 19 4 355 345 339 332 325 320 323 321 324 323 320 321 323 324 324
200 198 189 185 183 166 154 148 145 140 135 127 123 139 141 142 144 141 144 138 134 124 105 62 26 13 355 349 344 337 332 329 325 321 320 322 321 323 323 324 326 326 327
178 173 169 156 152 146 148 143 141 135 123 133 137 139 144 140 141 140 135 131 119 88 56 19 356 351 346 339 335 334 333 329 325 321 322 322 323 326 328 328 327 328 329
153 148 145 146 143 139 137 138 131 122 134 136 141 141 143 143 132 129 126 107 77 43 4 350 346 337 335 337 339 335 330 329 327 324 322 323 328 329 328 326 323 326 327
144 138 138 137 131 135 136 128 132 134 136 142 142 142 137 130 125 120 92 66 26 352 350 339 331 334 341 340 331 328 329 331 328 326 327 326 324 322 321 323 324 325 328
136 134 135 136 134 132 127 135 132 140 142 141 137 131 131 126 118 97 66 5 352 345 334 334 340 337 331 328 328 325 327 328 320 319 319 321 318 319 319 317 317 317 316
131 133 134 136 127 128 137 141 138 138 137 133 131 130 124 115 104 85 13 354 341 342 341 336 333 333 334 328 327 329 328 325 321 318 313 306 305 308 309 307 306 309 309
131 132 136 130 135 137 135 137 138 135 132 135 131 122 119 112 81 30 357 347 347 338 335 335 334 334 330 326 329 323 322 321 315 310 310 310 310 308 306 303 307 308 311
135 133 136 133 130 133 136 136 132 138 137 129 123 121 103 79 48 14 0 345 339 339 336 334 331 327 328 328 323 319 319 322 317 315 313 312 312 310 307 305 306 304 307
132 132 132 132 132 134 136 140 136 133 130 128 123 112 99 61 22 1 355 353 351 340 330 327 330 328 325 325 322 313 318 312 307 311 312 314 314 312 311 309 307 303 304
133 131 134 138 138 137 138 130 129 134 134 126 122 116 112 68 17 3 353 344 332 332 338 335 330 327 326 323 318 317 315 312 312 311 312 314 315 316 316 315 314 308 301
137 137 138 136 132 130 135 130 138 135 132 127 128 104 59 25 360 352 341 335 342 342 336 334 334 329 326 323 322 318 313 311 311 312 313 315 318 320 321 320 316 314 309
141 141 140 142 139 135 127 125 146 139 128 109 77 49 23 5 351 342 341 343 344 341 342 338 335 331 328 321 317 315 312 311 312 313 314 316 318 321 323 322 318 321 318
142 143 148 149 143 135 139 140 130 111 96 70 46 9 359 352 344 350 352 352 351 350 351 344 338 333 331 327 324 320 317 315 314 313 314 316 318 321 323 324 322 321 319
149 149 150 153 152 149 149 157 147 125 95 51 356 354 357 353 360 357 354 352 352 351 347 342 341 339 337 332 330 327 324 321 318 317 318 318 318 319 321 322 322 320 318
170 164 164 163 160 154 153 140 107 119 114 80 359 353 2 4 2 2 356 351 350 349 347 345 342 340 337 334 329 326 325 324 321 320 317 317 317 317 318 319 320 318 318
160 160 162 161 167 166 151 130 119 101 64 33 353 13 9 2 359 355 355 355 352 347 345 343 339 335 332 328 326 323 322 322 322 320 317 317 316 316 315 316 317 317 318
161 166 170 171 171 157 153 166 177 193 264 305 37 13 357 3 2 358 354 350 348 347 343 339 333 331 329 326 324 322 320 320 319 317 317 317 317 315 313 314 314 315 317
170 179 177 170 165 169 164 189 221 228 205 69 43 21 11 8 1 353 348 346 344 342 337 334 333 330 328 326 323 320 317 316 315 314 314 313 312 311 311 313 313 315 318
181 172 152 163 182 193 200 205 207 188 166 190 10 359 0 2 356 348 345 342 339 337 335 332 331 330 329 326 321 317 316 316 316 314 311 308 307 307 309 309 311 314 315
169 172 180 199 209 206 201 192 173 175 169 22 349 350 356 352 345 341 340 339 338 336 334 331 331 331 329 325 322 320 318 319 319 317 315 311 307 305 305 306 308 310 313
194 200 200 202 205 203 191 176 168 165 204 316 338 346 345 342 340 340 339 338 337 336 334 331 330 330 328 325 323 322 320 321 323 324 324 322 317 310 306 306 307 309 312
204 200 199 194 195 197 191 186 187 206 269 324 338 339 340 340 338 339 338 336 335 334 334 333 333 332 331 329 327 325 323 324 324 324 323 322 321 321 317 313 311 311 311
201 202 197 196 202 202 203 200 212 252 310 325 329 333 336 336 336 336 334 333 333 333 334 335 336 335 333 331 330 328 326 324 321 320 320 320 322 325 323 321 321 319 319
207 209 209 209 209 211 216 226 247 292 313 322 326 330 332 332 332 332 333 333 333 334 336 338 337 337 335 333 331 329 327 325 324 328 327 322 322 324 323 323 323 320 320